Stations météo

Publicité
Chillingham Barns, Grande-Bretagne (99196): Température de l'air & dewpoint: 16.08.2018 00:00:00 - 22.08.2018 00:00:00 (BST)Chillingham Barns, Grande-Bretagne (99196): Quantités de précipitations: 16.08.2018 00:00:00 - 22.08.2018 00:00:00 (BST)
Date & Time tt [°C] td [°C] rr [mm]
22.08.2018 00:00:00 16,8 14,0 0,0
21.08.2018 23:00:00 16,8 13,7 0,0
21.08.2018 22:00:00 17,6 14,1 0,0
21.08.2018 21:00:00 17,6 14,2 0,0
21.08.2018 20:00:00 18,1 13,9 0,0
21.08.2018 19:00:00 19,1 14,6 0,0
21.08.2018 18:00:00 20,6 14,9 0,0
21.08.2018 17:00:00 21,0 14,5 0,0
21.08.2018 16:00:00 22,4 17,1 0,0
21.08.2018 15:00:00 20,2 16,2 0,0
21.08.2018 14:00:00 18,7 15,6 0,0
21.08.2018 13:00:00 18,7 15,4 0,0
21.08.2018 12:00:00 17,9 15,6 0,0
21.08.2018 11:00:00 17,3 15,3 0,0
21.08.2018 10:00:00 16,4 14,8 0,0
21.08.2018 09:00:00 15,9 14,8 0,2
21.08.2018 08:00:00 14,8 14,7 0,0
21.08.2018 07:00:00 14,5 14,3 0,0
21.08.2018 06:00:00 14,3 14,1 0,0
21.08.2018 05:00:00 14,2 13,9 0,2
21.08.2018 04:00:00 14,2 14,0 0,0
21.08.2018 03:00:00 14,2 13,9 0,0
21.08.2018 02:00:00 14,2 13,9 0,0
21.08.2018 01:00:00 14,2 14,0 0,2
21.08.2018 00:00:00 14,2 13,8 0,4
20.08.2018 23:00:00 14,3 13,8 0,2
20.08.2018 22:00:00 14,3 13,7 0,4
20.08.2018 21:00:00 14,4 13,5 0,2
20.08.2018 20:00:00 14,8 13,4 0,0
20.08.2018 19:00:00 15,6 13,2 0,0
20.08.2018 18:00:00 16,2 13,2 0,0
20.08.2018 17:00:00 16,3 13,8 0,0
20.08.2018 16:00:00 16,4 13,7 0,0
20.08.2018 15:00:00 - - 0,0
20.08.2018 14:00:00 - - 0,2
20.08.2018 13:00:00 17,7 13,3 0,0
20.08.2018 12:00:00 16,4 13,3 0,0
20.08.2018 11:00:00 14,3 12,8 0,0
20.08.2018 10:00:00 12,9 12,3 0,0
20.08.2018 09:00:00 12,4 11,6 0,0
20.08.2018 08:00:00 11,8 11,4 0,0
20.08.2018 07:00:00 11,6 11,2 0,0
20.08.2018 06:00:00 11,8 11,4 0,0
20.08.2018 05:00:00 12,1 11,9 0,0
20.08.2018 04:00:00 12,4 12,1 0,0
20.08.2018 03:00:00 12,4 12,1 0,0
20.08.2018 02:00:00 12,6 12,3 0,0
20.08.2018 01:00:00 12,6 12,3 0,0
20.08.2018 00:00:00 12,5 12,2 0,2
19.08.2018 23:00:00 12,6 12,2 1,0
19.08.2018 22:00:00 12,6 12,0 0,0
19.08.2018 21:00:00 13,1 12,5 0,0
19.08.2018 20:00:00 13,5 12,8 0,0
19.08.2018 19:00:00 13,6 13,0 0,0
19.08.2018 18:00:00 13,8 13,0 0,0
19.08.2018 17:00:00 13,8 13,0 0,2
19.08.2018 16:00:00 14,2 13,5 0,0
19.08.2018 15:00:00 15,0 14,2 0,0
19.08.2018 14:00:00 15,4 14,6 0,0
19.08.2018 13:00:00 17,3 15,3 0,0
19.08.2018 12:00:00 18,6 16,8 0,0
19.08.2018 11:00:00 18,9 16,7 0,0
19.08.2018 10:00:00 18,5 17,6 0,0
19.08.2018 09:00:00 17,5 17,0 0,2
19.08.2018 08:00:00 17,0 16,5 0,0
19.08.2018 07:00:00 16,9 16,2 2,8
19.08.2018 06:00:00 16,5 16,0 3,4
19.08.2018 05:00:00 16,2 15,7 3,0
19.08.2018 04:00:00 16,0 15,3 1,2
19.08.2018 03:00:00 16,1 15,5 1,6
19.08.2018 02:00:00 16,5 15,5 0,8
19.08.2018 01:00:00 16,7 15,5 0,8
19.08.2018 00:00:00 17,5 15,1 0,4
18.08.2018 23:00:00 18,0 14,5 0,0
18.08.2018 22:00:00 18,3 14,4 0,0
18.08.2018 21:00:00 18,3 14,3 0,0
18.08.2018 20:00:00 18,6 14,2 0,0
18.08.2018 19:00:00 18,6 14,2 0,0
18.08.2018 18:00:00 18,6 14,3 0,0
18.08.2018 17:00:00 19,1 14,6 0,0
18.08.2018 16:00:00 19,2 14,6 0,0
18.08.2018 15:00:00 18,9 14,5 0,0
18.08.2018 14:00:00 19,4 14,7 0,0
18.08.2018 13:00:00 19,5 14,6 0,0
18.08.2018 12:00:00 18,5 14,0 0,0
18.08.2018 11:00:00 18,4 14,5 0,0
18.08.2018 10:00:00 17,5 13,8 0,0
18.08.2018 09:00:00 16,8 13,1 0,0
18.08.2018 08:00:00 16,4 12,5 0,0
18.08.2018 07:00:00 16,6 12,2 0,0
18.08.2018 06:00:00 16,5 13,0 0,0
18.08.2018 05:00:00 16,6 13,3 0,0
18.08.2018 04:00:00 16,2 12,2 0,0
18.08.2018 03:00:00 16,7 12,3 0,0
18.08.2018 02:00:00 16,6 12,7 0,0
18.08.2018 01:00:00 16,8 13,2 0,0
18.08.2018 00:00:00 16,3 12,9 0,0
17.08.2018 23:00:00 16,5 13,5 0,0
17.08.2018 22:00:00 16,4 13,2 0,0
17.08.2018 21:00:00 15,8 13,0 0,0
17.08.2018 20:00:00 15,5 12,7 0,0
17.08.2018 19:00:00 15,2 12,5 0,0
17.08.2018 18:00:00 14,9 12,4 0,0
17.08.2018 17:00:00 14,8 11,8 0,0
17.08.2018 16:00:00 14,0 11,6 0,0
17.08.2018 15:00:00 14,8 10,8 0,0
17.08.2018 14:00:00 15,9 9,7 0,0
17.08.2018 13:00:00 16,1 10,0 0,0
17.08.2018 12:00:00 16,1 9,4 0,0
17.08.2018 11:00:00 15,1 9,8 0,0
17.08.2018 10:00:00 14,3 9,3 0,0
17.08.2018 09:00:00 14,3 9,9 0,0
17.08.2018 08:00:00 13,9 9,3 0,0
17.08.2018 07:00:00 12,6 9,3 0,0
17.08.2018 06:00:00 11,5 8,5 0,0
17.08.2018 05:00:00 12,4 8,4 0,0
17.08.2018 04:00:00 11,9 8,5 0,0
17.08.2018 03:00:00 11,5 8,8 0,0
17.08.2018 02:00:00 10,8 8,0 0,0
17.08.2018 01:00:00 11,5 8,2 0,0
17.08.2018 00:00:00 12,4 8,5 0,0
16.08.2018 23:00:00 12,2 9,2 0,0
16.08.2018 22:00:00 12,8 9,7 0,0
16.08.2018 21:00:00 13,6 9,8 0,0
16.08.2018 20:00:00 14,6 9,7 0,0
16.08.2018 19:00:00 15,5 9,3 0,0
16.08.2018 18:00:00 15,4 10,0 0,0
16.08.2018 17:00:00 15,4 9,6 0,0
16.08.2018 16:00:00 18,4 9,4 0,0
16.08.2018 15:00:00 17,8 9,4 0,0
16.08.2018 14:00:00 17,8 9,9 0,0
16.08.2018 13:00:00 16,6 9,0 0,0
16.08.2018 12:00:00 18,1 10,1 0,0
16.08.2018 11:00:00 15,9 8,8 0,0
16.08.2018 10:00:00 15,2 9,9 0,0
16.08.2018 09:00:00 13,5 8,9 0,0
16.08.2018 08:00:00 13,2 9,4 0,0
16.08.2018 07:00:00 13,7 10,4 0,0
16.08.2018 06:00:00 14,2 12,7 0,0
16.08.2018 05:00:00 14,7 12,0 0,0
16.08.2018 04:00:00 15,2 12,5 0,0
16.08.2018 03:00:00 15,5 13,4 0,0
16.08.2018 02:00:00 15,5 13,6 0,0
16.08.2018 01:00:00 15,6 13,6 0,0
16.08.2018 00:00:00 16,1 13,4 0,0

tt = Température de l'air
td = dewpoint
rr = Quantités de précipitations

stations d'obs. à proximité